Location: Ammerl�gen
(47.2167°N, 9.6000°E)
Time: 11:02:34
(UTC+00:00)

Meteor 1-5 Rocket - Pass Details

Date: 21 April 2021
Orbit: 789 x 915 km, 81.2° (Epoch: 07 May)

Event Time Altitude Azimuth Distance (km) Brightness Sun altitude
Rises 23:05:31 0° 349° (NNW) 3,480 8.6 -30.5°
Reaches altitude 10° 23:08:00 10° 350° (N) 2,519 7.6 -30.5°
Enters shadow 23:12:58 67° 5° (N) 917 4.4 -30.6°
